AL7BX-WX Weather Reports


Display with metric or nautical units.
time (UTC)temp
F
wind
direction
speed
MPH
gust
MPH
rain 1hr
in
rain 24hr
in
rain mn
in
humidity
%
barometer
mb
20260830224713 83 179 11.0 23.0 0.00 0.00 0.00 32
20260830223603 84 181 9.0 22.0 0.00 0.00 0.00 31
20260830222703 84 174 10.0 23.0 0.00 0.00 0.00 30
20260830221803 84 164 11.0 21.0 0.00 0.00 0.00 29
20260830220903 85 165 11.0 24.0 0.00 0.00 0.00 28
20260830220003 85 171 12.0 24.0 0.00 0.00 0.00 30
20260830215403 86 166 11.0 24.0 0.00 0.00 0.00 29
20260830214503 86 177 10.0 19.0 0.00 0.00 0.00 28
20260830213603 86 180 10.0 17.0 0.00 0.00 0.00 31
20260830212703 86 178 11.0 24.0 0.00 0.00 0.00 30
20260830212012 85 182 11.0 22.0 0.00 0.00 0.00 30
20260830210903 84 184 11.0 22.0 0.00 0.00 0.00 32
20260830210213 84 169 11.0 27.0 0.00 0.00 0.00 31
20260830205403 85 180 12.0 26.0 0.00 0.00 0.00 31
20260830204503 85 164 11.0 25.0 0.00 0.00 0.00 31
20260830203603 84 170 9.0 25.0 0.00 0.00 0.00 32
20260830202703 84 192 9.0 23.0 0.00 0.00 0.00 31
20260830201803 85 179 10.0 21.0 0.00 0.00 0.00 31
20260830200903 85 176 10.0 23.0 0.00 0.00 0.00 31
20260830200003 84 176 11.0 22.0 0.00 0.00 0.00 31
20260830195614 85 178 11.0 23.0 0.00 0.00 0.00 32
20260830194503 85 184 8.0 19.0 0.00 0.00 0.00 32
20260830193813 84 190 10.0 22.0 0.00 0.00 0.00 33
20260830192914 84 189 9.0 20.0 0.00 0.00 0.00 32
20260830191803 84 154 10.0 19.0 0.00 0.00 0.00 33
20260830190903 83 165 11.0 21.0 0.00 0.00 0.00 33
20260830190003 83 173 11.0 21.0 0.00 0.00 0.00 34
20260830185403 83 176 11.0 23.0 0.00 0.00 0.00 32
20260830184503 82 184 13.0 27.0 0.00 0.00 0.00 33
20260830183603 82 179 12.0 26.0 0.00 0.00 0.00 34
20260830182914 82 171 10.0 19.0 0.00 0.00 0.00 34
20260830181803 82 179 11.0 25.0 0.00 0.00 0.00 35
20260830180903 82 175 10.0 22.0 0.00 0.00 0.00 36
20260830180003 82 176 9.0 21.0 0.00 0.00 0.00 37
20260830175613 82 172 8.0 16.0 0.00 0.00 0.00 38
20260830174503 81 162 10.0 19.0 0.00 0.00 0.00 38
20260830173814 80 170 11.0 21.0 0.00 0.00 0.00 38
20260830172913 80 183 10.0 23.0 0.00 0.00 0.00 39
20260830171803 80 187 10.0 20.0 0.00 0.00 0.00 40
20260830170903 79 185 9.0 19.0 0.00 0.00 0.00 40
20260830170213 79 189 10.0 19.0 0.00 0.00 0.00 40
20260830165403 79 184 9.0 19.0 0.00 0.00 0.00 40
20260830164503 78 183 8.0 18.0 0.00 0.00 0.00 42
20260830163603 78 189 7.0 16.0 0.00 0.00 0.00 43
20260830162703 77 187 10.0 16.0 0.00 0.00 0.00 44
20260830161803 77 192 7.0 17.0 0.00 0.00 0.00 44
20260830160903 77 188 8.0 15.0 0.00 0.00 0.00 45
20260830160003 76 185 7.0 15.0 0.00 0.00 0.00 46
20260830155403 76 191 6.0 14.0 0.00 0.00 0.00 47
20260830154503 75 191 6.0 13.0 0.00 0.00 0.00 48
20260830153603 74 186 5.0 11.0 0.00 0.00 0.00 49
20260830152703 74 174 5.0 12.0 0.00 0.00 0.00 49
20260830151803 75 177 5.0 10.0 0.00 0.00 0.00 50
20260830150903 74 149 2.0 5.0 0.00 0.00 0.00 50
20260830150003 74 150 2.0 5.0 0.00 0.00 0.00 52
20260830145403 73 138 3.0 9.0 0.00 0.00 0.00 51
20260830144713 72 112 4.0 10.0 0.00 0.00 0.00 52
20260830143603 71 108 4.0 7.0 0.00 0.00 0.00 53
20260830142912 71 121 3.0 7.0 0.00 0.00 0.00 54
20260830141803 69 151 3.0 7.0 0.00 0.00 0.00 56
20260830141113 69 160 4.0 7.0 0.00 0.00 0.00 57
20260830140003 68 167 4.0 11.0 0.00 0.00 0.00 57
20260830135403 68 174 3.0 8.0 0.00 0.00 0.00 57
20260830134503 68 120 3.0 9.0 0.00 0.00 0.00 57
20260830133603 68 152 2.0 10.0 0.00 0.00 0.00 58
20260830132914 67 177 1.0 5.0 0.00 0.00 0.00 58
20260830131803 67 162 2.0 5.0 0.00 0.00 0.00 59
20260830130903 66 82 1.0 5.0 0.00 0.00 0.00 60
20260830130003 66 27 0.0 2.0 0.00 0.00 0.00 60
20260830125403 66 26 0.0 3.0 0.00 0.00 0.00 60
20260830124503 66 25 0.0 3.0 0.00 0.00 0.00 59
20260830123603 66 38 2.0 5.0 0.00 0.00 0.00 57
20260830122703 68 102 2.0 4.0 0.00 0.00 0.00 56
20260830121803 68 138 1.0 4.0 0.00 0.00 0.00 55
20260830121114 69 138 2.0 4.0 0.00 0.00 0.00 54
20260830120003 69 140 2.0 4.0 0.00 0.00 0.00 53
20260830115403 69 141 2.0 5.0 0.00 0.00 0.00 53
20260830114503 69 151 3.0 7.0 0.00 0.00 0.00 52
20260830113603 69 147 3.0 6.0 0.00 0.00 0.00 52
20260830112703 69 148 4.0 10.0 0.00 0.00 0.00 52